ΕΜΥ, Εθνική Μετεωρολογική Υπηρεσία - Δελτία Καιρού, Προγνώσεις

ΑΕΡΟΝΑΥΤΙΛΙΑ

GREEK AIRPORTS CODES

LGAV 010720Z 34007G17KT 230V070 9999 FEW020 06/00 Q1020 RMK NOSIG=

EUROPEAN AIRPORTS CODES

LFPO 010700Z 24004KT 210V270 9999 BKN041 06/02 Q1028 NOSIG=